Location: Canet
(43.3261°N, 5.3723°E)
Time: 19:22:29
(UTC+00:00)

Cosmos 1833 Rocket - Pass Details

Date: 24 January 2021
Orbit: 833 x 839 km, 71.0° (Epoch: 07 March)

Event Time Altitude Azimuth Distance (km) Brightness Sun altitude
Rises 18:25:04 0° 339° (NNW) 3,390 6.0 -19.0°
Reaches altitude 10° 18:27:36 10° 344° (NNW) 2,453 5.2 -19.5°
Maximum altitude 18:33:04 50° 60° (ENE) 1,056 2.8 -20.5°
Enters shadow 18:34:39 39° 106° (ESE) 1,238 3.1 -20.8°
